Weather History for KVJI - October, 2013

Change the Weather History Date:

Thursday, October 17, 2013

  Actual Average (KTRI) Record (KTRI)
Temperature  
Mean Temperature 59 °F 56 °F  
Max Temperature 65 °F 69 °F 84 °F (2007)
Min Temperature 53 °F 43 °F 27 °F (1943)
Degree Days  
Heating Degree Days 6 9  
Month to date heating degree days 121  
Since 1 July heating degree days 174  
Cooling Degree Days 0 0  
Month to date cooling degree days 9  
Year to date cooling degree days 977  
Growing Degree Days 9 (Base 50)    
Moisture  
Dew Point 61 °F    
Average Humidity 99    
Maximum Humidity 100    
Minimum Humidity 91    
Precipitation  
Precipitation 0.15 in 0.06 in 0.93 in (1948)
Month to date precipitation 1.12  
Year to date precipitation 33.56  
Snow  
Snow 0.00 in 0.00 in - ()
Month to date snowfall 0.0  
Since 1 July snowfall 0.0  
Since 1 September snowfall 0.0  
Snow Depth -    
Sea Level Pressure  
Sea Level Pressure 29.95 in    
Wind  
Wind Speed 2 mph (NW)    
Max Wind Speed 10 mph    
Max Gust Speed 20 mph    
Visibility 6 miles    
Events Rain    
T = Trace of Precipitation, MM = Missing Value Source: NWS Daily Summary

Daily Weather History Graph

Daily Weather History Graph

Search for Another Location

Airport or City:

Trip Planner

Search our weather history database for the weather conditions in past years. The results will help you decide how hot, cold, wet, or windy it might be!

Date:

Astronomy

Oct. 17, 2013 Rise Set
Actual Time 7:37 AM EDT 6:48 PM EDT
Civil Twilight 7:11 AM EDT 7:14 PM EDT
Nautical Twilight 6:41 AM EDT 7:44 PM EDT
Astronomical Twilight 6:11 AM EDT 8:14 PM EDT
Moon 6:01 PM EDT (10/17) 6:10 AM EDT (10/17)
Length of Visible Light 12h 03m
Length of Day
11h 11m
Waxing Gibbous, 98% of the Moon is Illuminated
Oct 17
Waxing Gibbous
Oct 18
Full
Oct 26
Last Quarter
Nov 3
New
Nov 10
First Quarter

Hourly Weather History & Observations

Time (EDT) Temp. Dew Point Humidity Pressure Visibility Wind Dir Wind Speed Gust Speed Precip Events Conditions
12:15 AM 60.4 °F 60.4 °F 100% 30.02 in 4.0 mi Calm Calm - N/A   Light Drizzle
12:35 AM 60.6 °F 60.6 °F 100% 30.01 in 5.0 mi Calm Calm - N/A   Overcast
12:55 AM 60.6 °F 60.6 °F 100% 30.00 in 4.0 mi Calm Calm - N/A   Overcast
1:15 AM 60.8 °F 60.8 °F 100% 30.00 in 4.0 mi Calm Calm - N/A Rain Light Rain
1:35 AM 60.4 °F 60.4 °F 100% 29.99 in 3.0 mi Calm Calm - N/A   Overcast
1:55 AM 60.3 °F 60.3 °F 100% 29.99 in 4.0 mi Calm Calm - N/A   Overcast
2:15 AM 60.1 °F 60.1 °F 100% 29.99 in 3.0 mi Calm Calm - N/A   Overcast
2:35 AM 60.1 °F 60.1 °F 100% 29.99 in 3.0 mi Calm Calm - N/A   Overcast
2:55 AM 60.1 °F 60.1 °F 100% 29.98 in 3.0 mi Calm Calm - N/A   Overcast
3:15 AM 60.1 °F 60.1 °F 100% 29.97 in 3.0 mi Calm Calm - N/A   Overcast
3:35 AM 60.4 °F 60.4 °F 100% 29.97 in 4.0 mi Calm Calm - N/A   Overcast
3:55 AM 60.3 °F 60.3 °F 100% 29.96 in 4.0 mi Calm Calm - N/A   Overcast
4:15 AM 60.3 °F 60.3 °F 100% 29.96 in 4.0 mi Calm Calm - N/A   Overcast
4:35 AM 60.4 °F 60.4 °F 100% 29.95 in 5.0 mi Calm Calm - N/A   Overcast
4:55 AM 60.8 °F 60.8 °F 100% 29.95 in 5.0 mi East 3.5 mph - N/A   Overcast
5:15 AM 60.8 °F 60.8 °F 100% 29.95 in 5.0 mi East 4.6 mph - N/A   Overcast
5:35 AM 60.8 °F 60.8 °F 100% 29.95 in 7.0 mi Calm Calm - N/A   Overcast
5:55 AM 60.8 °F 60.8 °F 100% 29.95 in 10.0 mi Calm Calm - N/A   Overcast
6:15 AM 60.8 °F 60.8 °F 100% 29.95 in 7.0 mi Calm Calm - N/A   Light Drizzle
6:35 AM 60.8 °F 60.8 °F 100% 29.95 in 5.0 mi Calm Calm - N/A   Light Drizzle
6:55 AM 60.8 °F 60.8 °F 100% 29.95 in 7.0 mi Calm Calm - N/A   Overcast
7:15 AM 60.8 °F 60.8 °F 100% 29.95 in 4.0 mi ESE 3.5 mph - 0.01 in Rain Rain
7:35 AM 60.3 °F 60.3 °F 100% 29.95 in 5.0 mi ESE 3.5 mph - 0.02 in   Light Drizzle
7:55 AM 60.3 °F 60.3 °F 100% 29.94 in 5.0 mi East 4.6 mph - 0.02 in   Drizzle
8:15 AM 60.3 °F 60.3 °F 100% 29.94 in 4.0 mi Calm Calm - N/A   Drizzle
8:35 AM 60.4 °F 60.4 °F 100% 29.95 in 4.0 mi Calm Calm - 0.01 in   Overcast
8:55 AM 60.8 °F 60.8 °F 100% 29.95 in 4.0 mi Calm Calm - 0.01 in   Overcast
9:15 AM 60.8 °F 60.8 °F 100% 29.95 in 4.0 mi Calm Calm - N/A   Overcast
9:35 AM 61.2 °F 61.2 °F 100% 29.95 in 3.0 mi ESE 4.6 mph - N/A   Overcast
9:55 AM 61.3 °F 61.3 °F 100% 29.95 in 1.8 mi Calm Calm - N/A   Overcast
10:15 AM 61.5 °F 61.5 °F 100% 29.95 in 2.5 mi Calm Calm - N/A   Overcast
10:35 AM 61.9 °F 61.9 °F 100% 29.95 in 2.0 mi ESE 3.5 mph - N/A   Overcast
10:55 AM 62.1 °F 62.1 °F 100% 29.94 in 2.0 mi Calm Calm - N/A   Overcast
11:15 AM 62.2 °F 62.2 °F 100% 29.94 in 2.5 mi Calm Calm - N/A Rain Rain
11:35 AM 63.1 °F 63.1 °F 100% 29.93 in 4.0 mi Calm Calm - 0.01 in   Overcast
11:55 AM 63.5 °F 63.5 °F 100% 29.93 in 2.0 mi Calm Calm - 0.01 in Rain Light Rain
12:15 PM 63.9 °F 63.9 °F 100% 29.92 in 5.0 mi Calm Calm - N/A   Overcast
12:35 PM 64.0 °F 64.0 °F 100% 29.92 in 10.0 mi Calm Calm - N/A   Overcast
12:55 PM 64.6 °F 64.6 °F 100% 29.91 in 5.0 mi Calm Calm - N/A   Overcast
1:15 PM 64.4 °F 64.4 °F 100% 29.91 in 7.0 mi Calm Calm - N/A Rain Rain
1:35 PM 64.4 °F 64.4 °F 100% 29.90 in 2.5 mi West 4.6 mph - 0.01 in Rain Rain
1:55 PM 64.4 °F 64.4 °F 100% 29.89 in 2.5 mi West 3.5 mph - 0.04 in   Drizzle
2:15 PM 64.4 °F 64.4 °F 100% 29.89 in 5.0 mi West 6.9 mph - N/A   Overcast
2:35 PM 64.4 °F 64.4 °F 100% 29.88 in 2.5 mi West 5.8 mph - 0.02 in   Drizzle
2:55 PM 64.6 °F 64.6 °F 100% 29.88 in 1.8 mi West 5.8 mph - 0.03 in   Light Drizzle
3:15 PM 64.6 °F 64.6 °F 100% 29.88 in 2.0 mi West 8.1 mph - 0.01 in   Overcast
3:35 PM 64.6 °F 64.6 °F 100% 29.88 in 1.8 mi West 8.1 mph - 0.02 in Rain Rain
3:55 PM 64.8 °F 64.8 °F 100% 29.88 in 2.5 mi West 8.1 mph - 0.04 in   Light Drizzle
4:15 PM 64.9 °F 64.9 °F 100% 29.88 in 7.0 mi West 6.9 mph 19.6 mph N/A   Overcast
4:35 PM 64.9 °F 64.9 °F 100% 29.88 in 5.0 mi West 9.2 mph - N/A Rain Light Rain
4:55 PM 65.3 °F 65.3 °F 100% 29.88 in 10.0 mi West 6.9 mph 17.3 mph N/A   Overcast
5:15 PM 65.5 °F 65.5 °F 100% 29.89 in 10.0 mi West 5.8 mph - N/A   Overcast
5:35 PM 65.3 °F 65.3 °F 100% 29.89 in 10.0 mi WNW 9.2 mph - N/A   Overcast
5:55 PM 65.3 °F 65.3 °F 100% 29.90 in 10.0 mi NW 8.1 mph - N/A   Overcast
6:15 PM 62.6 °F 62.2 °F 99% 29.91 in 10.0 mi NNW 9.2 mph - N/A   Overcast
6:35 PM 61.2 °F 61.0 °F 99% 29.92 in 10.0 mi NNW 8.1 mph - N/A   Overcast
6:55 PM 60.8 °F 60.4 °F 99% 29.92 in 10.0 mi WNW 3.5 mph - N/A   Overcast
7:15 PM 60.6 °F 60.4 °F 99% 29.93 in 10.0 mi NW 6.9 mph - N/A   Overcast
7:35 PM 60.3 °F 60.1 °F 99% 29.95 in 10.0 mi NNW 9.2 mph - N/A   Overcast
7:55 PM 59.7 °F 58.5 °F 96% 29.95 in 10.0 mi NW 6.9 mph - N/A   Overcast
8:15 PM 59.0 °F 57.7 °F 96% 29.96 in 10.0 mi NNW 9.2 mph - N/A   Overcast
8:35 PM 58.3 °F 57.2 °F 96% 29.97 in 10.0 mi NNW 8.1 mph - N/A   Overcast
8:55 PM 57.2 °F 56.3 °F 97% 29.98 in 10.0 mi NNW 10.4 mph - N/A   Overcast
9:15 PM 56.1 °F 55.0 °F 96% 29.99 in 10.0 mi North 9.2 mph - N/A   Overcast
9:35 PM 55.6 °F 54.7 °F 97% 30.00 in 10.0 mi North 9.2 mph 17.3 mph N/A   Overcast
9:55 PM 55.0 °F 52.7 °F 92% 30.00 in 10.0 mi NNW 10.4 mph - N/A   Overcast
10:15 PM 54.9 °F 52.3 °F 91% 30.01 in 10.0 mi NNW 6.9 mph - N/A   Overcast
10:35 PM 54.7 °F 52.2 °F 91% 30.00 in 10.0 mi North 8.1 mph - N/A   Overcast
10:55 PM 54.7 °F 52.2 °F 91% 30.02 in 10.0 mi North 5.8 mph - N/A   Overcast
11:15 PM 54.1 °F 52.5 °F 94% 30.02 in 10.0 mi North 6.9 mph - N/A   Overcast
11:35 PM 53.8 °F 52.0 °F 94% 30.02 in 10.0 mi Calm Calm - N/A   Overcast
11:55 PM 53.6 °F 51.6 °F 93% 30.02 in 10.0 mi Calm Calm - N/A   Overcast